• Join FlightAware (Why Join?)
  • Login
  • US Flag 
12:47PM EDT


 

Airport Tracker/Info


-or-


 

Live Flight TrackerFlight Track Log ✈ N449ND ✈ 12-Jan-2014 ✈ KFPR - KFPR

Flight Track Log - Related Links

Times and Time Zones

All times are in EST time to prevent confusion due to time zone crossing. See the N449ND flight status page for this flight to view local times or setup timezone preferences in your user account.

Time Position Orientation Groundspeed Altitude Reporting Facility
EST Latitude Longitude Course Direction KTS MPH feet Rate Location/Type
02:05PM 27.4997 -80.3828 328° Northwest 90 104 500  Level Miami Center
02:06PM 27.4992 -80.4086 269° West 84 97 3,000 720 Climbing Miami Center
02:07PM 27.4942 -80.4364 259° West 89 102 2,000  Descending Miami Center
02:08PM 27.4936 -80.4644 269° West 89 102 3,000 480 Climbing Miami Center
02:09PM 27.4928 -80.4925 268° West 89 102 3,000  Level Miami Center
02:10PM 27.4975 -80.3726 328° Northwest  Level Estimated
02:10PM 27.5092 -80.5025 332° Northwest 66 76 3,100  Level Miami Center
02:11PM 27.5344 -80.5008 North 81 93 3,000 -60 Descending Miami Center
02:12PM 27.5636 -80.5042 354° North 95 109 3,000  Level Miami Center
02:13PM 27.5669 -80.5325 278° West 70 81 3,100  Climbing Miami Center
02:14PM 27.5786 -80.5608 295° West 95 109 3,100 -120 Level Miami Center
02:15PM 27.5928 -80.5825 306° West 95 109 2,900  Descending Miami Center
02:16PM 27.6153 -80.6019 323° Northwest 88 101 3,100  Climbing Miami Center
02:17PM 27.6400 -80.6144 336° Northwest 93 107 3,000 -60 Descending Miami Center
02:18PM 27.6647 -80.6222 344° North 93 107 3,000  Level Miami Center
02:19PM 27.6878 -80.6231 358° North 88 101 3,000  Level Miami Center
02:20PM 27.7131 -80.6169 12° North 88 101 3,000 -120 Level Miami Center
02:21PM 27.7097 -80.5839 96° East 74 85 2,800 -600 Descending Miami Center
02:22PM 27.7000 -80.5556 111° Southeast 94 108 1,900 -840 Descending Miami Center
02:23PM 27.6881 -80.5269 115° Southeast 99 114 1,200 -300 Descending Miami Center
02:24PM 27.6825 -80.5008 104° East 94 108 1,300 -180 Climbing Miami Center
02:25PM 27.6728 -80.4750 113° Southeast 94 108 900 -480 Descending Miami Center
02:26PM 27.6608 -80.4464 115° Southeast 94 108 400 -240 Descending Miami Center
02:27PM 27.6533 -80.4203 108° East 94 108 500 420 Climbing Miami Center
02:28PM 27.6681 -80.4136 22° Northeast 51 59 1,300 1,200 Climbing Miami Center
02:29PM 27.6889 -80.4192 347° North 59 68 3,000 840 Climbing Miami Center
02:30PM 27.7094 -80.4222 353° North 68 78 3,000  Level Miami Center
02:31PM 27.7325 -80.4181 North 68 78 3,000  Level Miami Center
02:32PM 27.7497 -80.3975 47° Northeast 74 85 3,000  Level Miami Center
02:33PM 27.7672 -80.3747 49° Northeast 96 110 3,000  Level Miami Center
02:34PM 27.7844 -80.3517 50° Northeast 101 116 3,000  Level Miami Center
02:35PM 27.7914 -80.3167 77° East 101 116 3,000  Level Miami Center
02:36PM 27.8067 -80.2889 58° Northeast 95 109 3,000  Level Miami Center
02:37PM 27.7839 -80.2811 163° South 64 74 3,000  Level Miami Center
02:38PM 27.7625 -80.3042 224° Southwest 98 113 3,100  Climbing Miami Center
02:39PM 27.7392 -80.3267 220° Southwest 109 125 3,100 -60 Level Miami Center
02:40PM 27.7133 -80.3519 221° Southwest 114 131 3,000 -60 Descending Miami Center
02:41PM 27.6900 -80.3744 220° Southwest 119 137 3,000  Level Miami Center
02:42PM 27.6831 -80.4025 254° West 114 131 3,000  Level Miami Center
02:43PM 27.6697 -80.4325 243° Southwest 109 125 3,000  Level Miami Center
02:44PM 27.6606 -80.4675 254° West 109 125 3,000  Level Miami Center
02:45PM 27.6536 -80.4953 254° West 109 125 3,000  Level Miami Center
02:46PM 27.6506 -80.5258 264° West 109 125 3,000  Level Miami Center
02:47PM 27.6625 -80.5519 297° West 104 120 3,100 -180 Climbing Miami Center
02:48PM 27.6786 -80.5758 307° West 104 120 2,700 -600 Descending Miami Center
02:49PM 27.6978 -80.5625 32° Northeast 66 76 2,000 -360 Descending Miami Center
02:50PM 27.6922 -80.5342 102° East 59 68 2,000 -300 Level Miami Center
02:51PM 27.6825 -80.5081 113° Southeast 76 87 1,400 -360 Descending Miami Center
02:52PM 27.6767 -80.4844 106° East 89 102 1,300 -420 Descending Miami Center
02:53PM 27.6669 -80.4583 113° Southeast 84 97 600 -480 Descending Miami Center
02:54PM 27.6611 -80.4392 109° East 78 90 400 60 Descending Miami Center
02:55PM 27.6511 -80.4181 118° Southeast 73 84 800 480 Climbing Miami Center
02:56PM 27.6456 -80.3919 104° East 73 84 1,400 1,080 Climbing Miami Center
02:57PM 27.6358 -80.3658 113° Southeast 79 91 3,000 780 Climbing Miami Center
02:58PM 27.6261 -80.3375 111° Southeast 85 98 3,000  Level Miami Center
02:59PM 27.6161 -80.3114 113° Southeast 96 110 3,000  Level Miami Center
03:00PM 27.5950 -80.3247 209° Southwest 68 78 3,000  Level Miami Center
03:01PM 27.5819 -80.3503 240° Southwest 99 114 3,000  Level Miami Center
03:02PM 27.5689 -80.3756 240° Southwest 111 128 3,100  Climbing Miami Center
03:03PM 27.5514 -80.4078 239° Southwest 111 128 3,100 -60 Level Miami Center
03:04PM 27.5547 -80.4336 278° West 94 108 3,000 -180 Descending Miami Center
03:05PM 27.5689 -80.4597 301° West 88 101 2,800  Descending Miami Center
03:06PM 27.5786 -80.4814 297° West 98 113 3,000 60 Climbing Miami Center
03:07PM 27.5883 -80.5119 290° West 98 113 3,000  Level Miami Center
03:08PM 27.6022 -80.5406 299° West 98 113 3,100  Climbing Miami Center
03:09PM 27.6119 -80.5714 290° West 98 113 3,000 -60 Descending Miami Center
03:10PM 27.6236 -80.5975 297° West 98 113 3,000  Level Miami Center
03:11PM 27.6314 -80.6211 290° West 98 113 3,000  Level Miami Center
03:12PM 27.6392 -80.6450 290° West 81 93 3,100  Climbing Miami Center
03:13PM 27.6581 -80.6431 North 59 68 3,000 -120 Descending Miami Center
03:14PM 27.6833 -80.6300 25° Northeast 79 91 2,900 -360 Descending Miami Center
03:15PM 27.7067 -80.6189 23° Northeast 97 112 2,300 -540 Descending Miami Center
03:16PM 27.7094 -80.5933 83° East 75 86 1,900 -360 Descending Miami Center
03:17PM 27.7017 -80.5672 109° East 81 93 1,600 -240 Descending Miami Center
03:18PM 27.6942 -80.5364 105° East 93 107 1,500  Descending Miami Center
03:19PM 27.6825 -80.5056 113° Southeast 93 107 1,600 -300 Climbing Miami Center
03:20PM 27.6747 -80.4819 110° East 93 107 900 -540 Descending Miami Center
03:21PM 27.6650 -80.4511 110° East 93 107 600 -300 Descending Miami Center
03:22PM 27.6553 -80.4250 113° Southeast 93 107 400 1,200 Descending Miami Center
03:23PM 27.6475 -80.4014 110° East 93 107 3,000 1,260 Climbing Miami Center
03:24PM 27.6417 -80.3800 107° East 88 101 3,000  Level Miami Center
03:26PM 27.6283 -80.3258 106° East 90 104 3,100  Climbing Miami Center
03:27PM 27.6144 -80.2950 117° Southeast 102 117 3,100 -60 Level Miami Center
03:28PM 27.6008 -80.2617 115° Southeast 108 124 3,000 -60 Descending Miami Center
03:29PM 27.5908 -80.2333 112° Southeast 108 124 3,000  Level Miami Center
03:30PM 27.5769 -80.2025 117° Southeast 108 124 3,000  Level Miami Center
03:31PM 27.5633 -80.1644 112° Southeast 115 132 3,100  Climbing Miami Center
03:32PM 27.5472 -80.1361 123° Southeast 110 127 3,000 -60 Descending Miami Center
03:33PM 27.5158 -80.1444 193° South 92 106 3,000  Level Miami Center
03:34PM 27.4864 -80.1531 195° South 117 135 3,000  Level Miami Center
03:35PM 27.4589 -80.1686 207° Southwest 122 140 3,000 -180 Level Miami Center
03:36PM 27.4622 -80.2061 276° West 109 125 2,700 -720 Descending Miami Center
03:37PM 27.4697 -80.2392 284° West 114 131 1,600 -540 Descending Miami Center
03:38PM 27.4772 -80.2697 285° West 114 131 1,700 -240 Climbing Miami Center
03:39PM 27.4831 -80.2956 284° West 104 120 1,200 -480 Descending Miami Center
03:40PM 27.4886 -80.3239 282° West 90 104 800 -300 Descending Miami Center
03:41PM 27.4903 -80.3450 275° West 85 98 600 -240 Descending Miami Center